TimeCST,TemperatureF,Dew PointF,Humidity,Sea Level PressureIn,VisibilityMPH,Wind Direction,Wind SpeedMPH,Gust SpeedMPH,PrecipitationIn,Events,Conditions,WindDirDegrees,DateUTC
12:15 AM,49.5,37.8,64,30.24,10.0,ENE,3.5,-,N/A,,Clear,70,2013-03-02 06:15:00
12:35 AM,48.0,37.6,67,30.25,10.0,NE,5.8,-,N/A,,Clear,40,2013-03-02 06:35:00
12:55 AM,50.9,39.0,64,30.26,10.0,North,4.6,-,N/A,,Clear,360,2013-03-02 06:55:00
1:15 AM,50.4,39.0,65,30.27,10.0,North,4.6,-,N/A,,Clear,360,2013-03-02 07:15:00
1:35 AM,50.5,39.7,66,30.26,10.0,North,3.5,-,N/A,,Clear,350,2013-03-02 07:35:00
1:55 AM,50.5,39.4,66,30.26,10.0,WNW,3.5,-,N/A,,Clear,300,2013-03-02 07:55:00
2:15 AM,49.5,39.0,67,30.26,10.0,NW,4.6,-,N/A,,Clear,310,2013-03-02 08:15:00
2:35 AM,49.5,38.3,65,30.26,10.0,NNW,4.6,-,N/A,,Clear,340,2013-03-02 08:35:00
3:15 AM,48.9,37.6,65,30.25,10.0,NNW,4.6,-,N/A,,Clear,330,2013-03-02 09:15:00
3:35 AM,49.1,37.4,64,30.25,10.0,NW,4.6,-,N/A,,Clear,320,2013-03-02 09:35:00
3:55 AM,48.7,37.6,65,30.27,10.0,NW,6.9,-,N/A,,Clear,320,2013-03-02 09:55:00
4:15 AM,49.5,36.1,60,30.27,10.0,NNW,4.6,-,N/A,,Clear,330,2013-03-02 10:15:00
4:35 AM,48.6,36.3,63,30.29,10.0,North,5.8,-,N/A,,Clear,350,2013-03-02 10:35:00
4:55 AM,49.6,37.9,64,30.30,10.0,North,6.9,-,N/A,,Clear,10,2013-03-02 10:55:00
5:15 AM,50.4,39.9,67,30.32,10.0,North,8.1,-,N/A,,Clear,350,2013-03-02 11:15:00
5:35 AM,50.0,40.1,69,30.33,10.0,North,4.6,-,N/A,,Clear,350,2013-03-02 11:35:00
5:55 AM,49.6,39.2,67,30.33,10.0,NNW,3.5,-,N/A,,Clear,340,2013-03-02 11:55:00
6:35 AM,48.7,37.0,64,30.35,10.0,NNW,6.9,-,N/A,,Clear,340,2013-03-02 12:35:00
6:55 AM,49.1,34.9,58,30.36,10.0,NNW,8.1,-,N/A,,Clear,330,2013-03-02 12:55:00
7:15 AM,50.0,33.8,54,30.37,10.0,North,6.9,-,N/A,,Clear,350,2013-03-02 13:15:00
7:35 AM,51.1,33.3,51,30.37,10.0,North,8.1,-,N/A,,Clear,350,2013-03-02 13:35:00
7:55 AM,53.2,33.1,46,30.39,10.0,North,8.1,-,N/A,,Clear,360,2013-03-02 13:55:00
8:15 AM,56.1,32.4,41,30.40,10.0,North,12.7,18.4,N/A,,Clear,10,2013-03-02 14:15:00
8:35 AM,57.0,32.4,39,30.42,10.0,North,12.7,-,N/A,,Clear,360,2013-03-02 14:35:00
9:15 AM,59.0,32.4,37,30.43,10.0,North,11.5,18.4,N/A,,Clear,10,2013-03-02 15:15:00
9:35 AM,60.4,32.2,35,30.43,10.0,North,10.4,19.6,N/A,,Clear,360,2013-03-02 15:35:00
9:55 AM,61.9,31.5,32,30.43,10.0,North,12.7,16.1,N/A,,Clear,360,2013-03-02 15:55:00
10:15 AM,62.8,31.1,30,30.43,10.0,North,12.7,20.7,N/A,,Clear,10,2013-03-02 16:15:00
10:35 AM,63.3,30.2,29,30.43,10.0,North,11.5,16.1,N/A,,Clear,360,2013-03-02 16:35:00
10:55 AM,63.9,30.4,28,30.43,10.0,North,9.2,17.3,N/A,,Clear,360,2013-03-02 16:55:00
11:15 AM,65.7,29.8,26,30.42,10.0,North,12.7,-,N/A,,Clear,350,2013-03-02 17:15:00
11:35 AM,66.7,29.7,25,30.42,10.0,NNE,9.2,19.6,N/A,,Clear,30,2013-03-02 17:35:00
11:55 AM,66.9,28.9,24,30.41,10.0,NW,9.2,19.6,N/A,,Clear,320,2013-03-02 17:55:00
12:35 PM,68.9,28.2,22,30.39,10.0,North,6.9,18.4,N/A,,Clear,10,2013-03-02 18:35:00
12:55 PM,69.4,27.7,21,30.38,10.0,North,12.7,19.6,N/A,,Clear,350,2013-03-02 18:55:00
1:15 PM,70.0,27.1,20,30.36,10.0,NNW,6.9,17.3,N/A,,Clear,340,2013-03-02 19:15:00
1:35 PM,71.2,27.0,19,30.35,10.0,North,10.4,-,N/A,,Clear,350,2013-03-02 19:35:00
1:55 PM,71.8,26.4,18,30.33,10.0,North,11.5,16.1,N/A,,Clear,350,2013-03-02 19:55:00
2:15 PM,72.9,25.7,17,30.32,10.0,NNW,9.2,18.4,N/A,,Clear,340,2013-03-02 20:15:00
2:35 PM,73.6,25.7,17,30.31,10.0,NNW,8.1,18.4,N/A,,Clear,340,2013-03-02 20:35:00
2:55 PM,73.8,25.9,17,30.30,10.0,NNW,12.7,17.3,N/A,,Clear,340,2013-03-02 20:55:00
3:15 PM,73.9,25.9,17,30.29,10.0,WNW,10.4,19.6,N/A,,Clear,300,2013-03-02 21:15:00
3:35 PM,75.2,26.2,16,30.28,10.0,North,11.5,17.3,N/A,,Clear,360,2013-03-02 21:35:00
3:55 PM,74.1,25.7,17,30.27,10.0,NW,13.8,18.4,N/A,,Clear,320,2013-03-02 21:55:00
4:15 PM,75.0,26.2,16,30.27,10.0,NNW,11.5,17.3,N/A,,Clear,330,2013-03-02 22:15:00
4:35 PM,74.5,25.9,16,30.27,10.0,WNW,10.4,17.3,N/A,,Clear,300,2013-03-02 22:35:00
4:55 PM,74.3,25.7,16,30.27,10.0,NW,9.2,18.4,N/A,,Clear,310,2013-03-02 22:55:00
5:15 PM,74.7,25.9,16,30.26,10.0,NNW,9.2,-,N/A,,Clear,340,2013-03-02 23:15:00
5:35 PM,73.9,25.7,17,30.26,10.0,NW,8.1,-,N/A,,Clear,320,2013-03-02 23:35:00
5:55 PM,73.4,26.2,17,30.27,10.0,North,8.1,-,N/A,,Clear,360,2013-03-02 23:55:00
6:15 PM,72.5,26.4,18,30.27,10.0,North,5.8,-,N/A,,Clear,360,2013-03-03 00:15:00
6:35 PM,70.2,27.1,20,30.27,10.0,NNE,4.6,-,N/A,,Clear,20,2013-03-03 00:35:00
6:55 PM,67.1,27.3,22,30.27,10.0,NNE,3.5,-,N/A,,Clear,20,2013-03-03 00:55:00
7:15 PM,66.2,27.3,23,30.28,10.0,Calm,Calm,-,N/A,,Clear,0,2013-03-03 01:15:00
7:35 PM,64.2,27.3,25,30.28,10.0,NE,3.5,-,N/A,,Clear,40,2013-03-03 01:35:00
7:55 PM,63.3,27.5,26,30.29,10.0,ENE,3.5,-,N/A,,Clear,70,2013-03-03 01:55:00
8:15 PM,62.8,27.5,26,30.29,10.0,East,5.8,-,N/A,,Clear,80,2013-03-03 02:15:00
8:35 PM,61.7,27.7,28,30.29,10.0,East,4.6,-,N/A,,Clear,80,2013-03-03 02:35:00
8:55 PM,60.3,27.7,29,30.29,10.0,East,4.6,-,N/A,,Scattered Clouds,90,2013-03-03 02:55:00
9:15 PM,59.5,27.9,30,30.30,10.0,East,4.6,-,N/A,,Clear,90,2013-03-03 03:15:00
9:35 PM,58.5,28.0,31,30.31,10.0,SSE,6.9,-,N/A,,Clear,150,2013-03-03 03:35:00
9:55 PM,56.8,28.4,34,30.32,10.0,SE,4.6,-,N/A,,Clear,130,2013-03-03 03:55:00
10:15 PM,55.9,32.2,41,30.32,10.0,SSE,3.5,-,N/A,,Clear,160,2013-03-03 04:15:00
10:35 PM,54.7,34.9,47,30.32,10.0,Calm,Calm,-,N/A,,Clear,0,2013-03-03 04:35:00
10:55 PM,53.2,35.1,50,30.32,10.0,Calm,Calm,-,N/A,,Clear,0,2013-03-03 04:55:00
11:15 PM,52.5,34.7,51,30.32,10.0,SSW,3.5,-,N/A,,Clear,200,2013-03-03 05:15:00
11:35 PM,50.7,34.9,55,30.32,10.0,Calm,Calm,-,N/A,,Clear,0,2013-03-03 05:35:00
11:55 PM,50.7,35.6,56,30.31,10.0,Calm,Calm,-,N/A,,Clear,0,2013-03-03 05:55:00